This is the latest recevied weather packets stored in our database for station/object DG8SBT-10. If no packets are shown the sender has not sent any weather packets the latest 1 day(s).
| Time | Temp. | Humidity | Pressure | Rain* | Wind** | Luminosity | Snow |
|---|---|---|---|---|---|---|---|
| 1777737663 | 26.67° C | 27% | 1018.7 hPa | - | - | - | - |
| 1777736762 | 26.67° C | 27% | 1018.8 hPa | - | - | - | - |
| 1777735862 | 26.67° C | 27% | 1018.9 hPa | - | - | - | - |
| 1777734962 | 26.67° C | 27% | 1019.1 hPa | - | - | - | - |
| 1777734062 | 26.67° C | 27% | 1019.3 hPa | - | - | - | - |
| 1777733162 | 26.67° C | 27% | 1019.6 hPa | - | - | - | - |
| 1777732262 | 26.67° C | 27% | 1019.8 hPa | - | - | - | - |
| 1777731362 | 26.67° C | 27% | 1020 hPa | - | - | - | - |
| 1777730462 | 26.67° C | 28% | 1020.1 hPa | - | - | - | - |
| 1777729562 | 27.78° C | 27% | 1020.3 hPa | - | - | - | - |
| 1777728656 | 27.22° C | 27% | 1020.5 hPa | - | - | - | - |
| 1777726855 | 25.56° C | 29% | 1020.8 hPa | - | - | - | - |
| 1777725950 | 25.56° C | 29% | 1021.1 hPa | - | - | - | - |
| 1777725050 | 25.56° C | 30% | 1021.3 hPa | - | - | - | - |
| 1777724150 | 25.56° C | 30% | 1021.6 hPa | - | - | - | - |
| 1777723250 | 25° C | 30% | 1021.8 hPa | - | - | - | - |
| 1777722350 | 24.44° C | 31% | 1022 hPa | - | - | - | - |
| 1777721450 | 24.44° C | 31% | 1022.3 hPa | - | - | - | - |
| 1777720550 | 24.44° C | 31% | 1022.5 hPa | - | - | - | - |
| 1777719650 | 24.44° C | 32% | 1022.5 hPa | - | - | - | - |
| 1777718750 | 23.89° C | 32% | 1022.8 hPa | - | - | - | - |
| 1777717849 | 23.89° C | 32% | 1022.9 hPa | - | - | - | - |
| 1777716949 | 23.89° C | 33% | 1023.2 hPa | - | - | - | - |
| 1777716049 | 23.89° C | 32% | 1023.2 hPa | - | - | - | - |
| 1777715149 | 23.33° C | 33% | 1023.4 hPa | - | - | - | - |
* Rain since midnight (hover to see other rain measurements)
** Current wind speed in m/s (hover to see current wind gust speed)